{"data":{"norad_id":57864,"intl_designator":"2023-144A","name":"STARLINK-30432","alt_names":[],"object_type":"PAYLOAD","status":"ACTIVE","operator":null,"country":"US","launch_date":"2023-09-16","launch_site_code":"AFETR","launch_vehicle":null,"mission":null,"orbit_class":"UNKNOWN","rcs_meters":null,"size_class":null,"mass_kg":null,"dimensions":null,"purposes":["comms"],"wikipedia_slug":null,"has_3d_model":false,"image_url":null,"decayed_at":null,"tle_current":{"epoch":"2026-09-20T08:59:00.639744Z","epoch_age_seconds":145497,"freshness":"FRESH","line1":"1 57864U 23144A   26263.37431296  .00000067  00000+0  11957-4 0  9997","line2":"2 57864  43.0004 265.5859 0001021 278.6536  81.4200 15.27574545167378","mean_motion":15.27574545,"eccentricity":0.0001021,"inclination_deg":43.0004,"raan_deg":265.5859,"arg_perigee_deg":278.6536,"mean_anomaly_deg":81.42,"bstar":1.1957e-5,"rev_number":16737,"period_min":94.267085342143,"perigee_km":482.36490155255,"apogee_km":483.76595908882,"semimajor_km":6861.2024303207,"source":"CELESTRAK","updated_at":"2026-09-21T09:00:33.715604Z"}}}